QPF
0.02 0.02 0.01 0.01 0.01 0.01 0.01 0.01 0.01 0.01 0.01 0.01 0.02 0.02 0.02 0.02 0.04 0.05 0.05 0.04 0.05 0.04 0.04 0.05 0.06 0.09 0.08 0.07 0.08 0.07 0.07 0.07 0.08 0.07 0.08 0.08 0.09 0.10 0.11 0.11 0.10 0.08 0.08
0.01 0.01 0.01 0.01 0.01 0.01 0.01 0.01 0.01 0.01 0.01 0.01 0.01 0.02 0.02 0.01 0.02 0.03 0.03 0.03 0.04 0.03 0.03 0.04 0.05 0.06 0.08 0.08 0.09 0.08 0.07 0.07 0.07 0.07 0.09 0.08 0.07 0.08 0.09 0.11 0.11 0.10 0.10
0.01 0.01 0.01 0.01 0.01 0.00 0.00 0.01 0.01 0.01 0.01 0.01 0.01 0.03 0.03 0.02 0.04 0.03 0.02 0.02 0.03 0.04 0.03 0.04 0.05 0.06 0.07 0.08 0.08 0.08 0.08 0.09 0.09 0.09 0.11 0.11 0.10 0.08 0.06 0.07 0.07 0.06 0.07
0.00 0.01 0.01 0.01 0.01 0.01 0.00 0.01 0.01 0.00 0.00 0.01 0.01 0.02 0.02 0.02 0.04 0.03 0.03 0.03 0.03 0.04 0.05 0.05 0.06 0.06 0.07 0.09 0.09 0.09 0.09 0.10 0.11 0.13 0.14 0.14 0.13 0.10 0.07 0.06 0.06 0.04 0.05
0.00 0.00 0.00 0.00 0.01 0.01 0.01 0.00 0.01 0.01 0.01 0.01 0.01 0.02 0.02 0.03 0.04 0.04 0.04 0.04 0.04 0.04 0.05 0.07 0.07 0.07 0.09 0.10 0.10 0.10 0.10 0.11 0.12 0.14 0.13 0.12 0.12 0.11 0.08 0.08 0.06 0.04 0.05
0.00 0.00 0.00 0.00 0.01 0.01 0.00 0.00 0.01 0.01 0.01 0.01 0.01 0.01 0.02 0.02 0.03 0.02 0.02 0.05 0.08 0.04 0.04 0.07 0.07 0.07 0.09 0.10 0.12 0.13 0.12 0.13 0.15 0.15 0.15 0.13 0.10 0.10 0.09 0.07 0.06 0.05 0.04
0.00 0.00 0.00 0.00 0.01 0.01 0.00 0.00 0.01 0.01 0.01 0.01 0.01 0.01 0.02 0.02 0.02 0.02 0.03 0.05 0.06 0.03 0.03 0.05 0.05 0.05 0.07 0.09 0.13 0.16 0.15 0.14 0.13 0.17 0.17 0.20 0.16 0.09 0.08 0.07 0.07 0.06 0.05
0.00 0.00 0.00 0.00 0.00 0.01 0.00 0.01 0.01 0.01 0.01 0.01 0.01 0.01 0.01 0.02 0.01 0.02 0.04 0.04 0.03 0.03 0.03 0.04 0.06 0.07 0.07 0.08 0.13 0.17 0.16 0.14 0.14 0.15 0.21 0.27 0.22 0.13 0.10 0.08 0.08 0.07 0.06
0.00 0.00 0.00 0.00 0.01 0.01 0.01 0.01 0.01 0.01 0.00 0.01 0.01 0.01 0.01 0.01 0.01 0.02 0.04 0.05 0.04 0.03 0.04 0.04 0.05 0.09 0.08 0.08 0.13 0.19 0.19 0.17 0.20 0.21 0.27 0.34 0.27 0.18 0.14 0.12 0.11 0.09 0.08
0.01 0.01 0.01 0.00 0.01 0.02 0.01 0.01 0.00 0.00 0.00 0.00 0.01 0.01 0.01 0.01 0.02 0.02 0.02 0.05 0.05 0.04 0.04 0.05 0.04 0.07 0.09 0.09 0.14 0.21 0.24 0.21 0.20 0.20 0.30 0.35 0.33 0.23 0.18 0.16 0.13 0.10 0.08
0.01 0.01 0.01 0.01 0.01 0.01 0.01 0.00 0.00 0.00 0.00 0.01 0.01 0.01 0.02 0.04 0.05 0.04 0.02 0.02 0.02 0.03 0.03 0.03 0.03 0.05 0.08 0.07 0.10 0.16 0.24 0.25 0.18 0.16 0.23 0.29 0.32 0.24 0.20 0.18 0.14 0.11 0.09
0.01 0.01 0.01 0.00 0.00 0.01 0.02 0.01 0.02 0.01 0.01 0.02 0.03 0.03 0.03 0.04 0.04 0.06 0.05 0.02 0.02 0.02 0.02 0.03 0.03 0.03 0.04 0.06 0.08 0.11 0.15 0.17 0.18 0.16 0.19 0.24 0.22 0.18 0.17 0.16 0.14 0.11 0.10
0.02 0.01 0.01 0.00 0.01 0.01 0.02 0.01 0.01 0.02 0.02 0.03 0.03 0.02 0.04 0.04 0.05 0.07 0.08 0.06 0.05 0.04 0.04 0.04 0.05 0.05 0.05 0.08 0.10 0.09 0.12 0.16 0.16 0.13 0.17 0.18 0.14 0.12 0.11 0.11 0.11 0.10 0.08
0.01 0.01 0.01 0.00 0.00 0.00 0.01 0.01 0.01 0.02 0.02 0.03 0.02 0.01 0.02 0.04 0.04 0.06 0.06 0.06 0.05 0.05 0.04 0.04 0.05 0.08 0.07 0.07 0.08 0.08 0.08 0.11 0.13 0.14 0.13 0.09 0.07 0.08 0.07 0.06 0.07 0.07 0.07
0.02 0.02 0.01 0.00 0.00 0.00 0.01 0.02 0.02 0.02 0.02 0.03 0.03 0.02 0.02 0.03 0.04 0.05 0.05 0.05 0.04 0.05 0.04 0.04 0.05 0.06 0.05 0.05 0.06 0.07 0.07 0.07 0.09 0.11 0.10 0.08 0.05 0.06 0.07 0.07 0.08 0.07 0.07
0.02 0.03 0.02 0.00 0.00 0.00 0.00 0.01 0.02 0.02 0.02 0.02 0.02 0.02 0.02 0.04 0.04 0.04 0.05 0.04 0.03 0.04 0.05 0.04 0.04 0.05 0.05 0.05 0.05 0.06 0.05 0.06 0.08 0.09 0.08 0.07 0.06 0.06 0.08 0.08 0.08 0.07 0.06
0.01 0.02 0.02 0.01 0.01 0.00 0.00 0.01 0.02 0.03 0.02 0.02 0.02 0.02 0.02 0.03 0.04 0.06 0.05 0.04 0.03 0.03 0.03 0.03 0.04 0.06 0.06 0.07 0.07 0.06 0.05 0.06 0.05 0.05 0.07 0.08 0.08 0.08 0.10 0.10 0.08 0.07 0.06
0.01 0.02 0.02 0.01 0.00 0.00 0.00 0.01 0.01 0.02 0.03 0.02 0.02 0.03 0.03 0.03 0.04 0.05 0.05 0.03 0.02 0.02 0.03 0.03 0.04 0.06 0.09 0.10 0.08 0.07 0.06 0.06 0.05 0.05 0.07 0.09 0.12 0.13 0.13 0.15 0.12 0.08 0.05
0.01 0.02 0.02 0.01 0.01 0.01 0.01 0.01 0.01 0.02 0.02 0.02 0.03 0.03 0.03 0.03 0.04 0.06 0.05 0.04 0.03 0.02 0.03 0.03 0.05 0.06 0.09 0.10 0.07 0.08 0.07 0.07 0.07 0.08 0.09 0.10 0.11 0.12 0.12 0.13 0.11 0.09 0.06
0.01 0.02 0.02 0.02 0.02 0.01 0.02 0.02 0.02 0.02 0.03 0.02 0.03 0.03 0.03 0.04 0.03 0.05 0.06 0.05 0.03 0.03 0.04 0.04 0.05 0.06 0.09 0.09 0.06 0.07 0.09 0.09 0.09 0.11 0.14 0.16 0.12 0.10 0.10 0.10 0.08 0.07 0.06
0.01 0.02 0.03 0.03 0.02 0.02 0.03 0.04 0.04 0.03 0.03 0.03 0.02 0.02 0.03 0.04 0.05 0.06 0.05 0.07 0.05 0.06 0.07 0.06 0.07 0.08 0.09 0.10 0.10 0.12 0.14 0.13 0.14 0.14 0.14 0.14 0.13 0.11 0.08 0.07 0.07 0.06 0.06
0.01 0.02 0.03 0.02 0.02 0.03 0.04 0.04 0.04 0.04 0.04 0.03 0.02 0.02 0.03 0.04 0.06 0.06 0.07 0.07 0.06 0.06 0.07 0.06 0.07 0.08 0.08 0.10 0.12 0.14 0.19 0.22 0.20 0.14 0.11 0.13 0.14 0.12 0.09 0.07 0.08 0.11 0.08
0.01 0.01 0.02 0.02 0.02 0.03 0.04 0.04 0.03 0.04 0.03 0.03 0.03 0.04 0.03 0.04 0.06 0.10 0.12 0.11 0.10 0.08 0.08 0.08 0.07 0.06 0.09 0.10 0.11 0.15 0.23 0.26 0.21 0.14 0.10 0.10 0.11 0.10 0.09 0.07 0.06 0.08 0.08
0.00 0.01 0.03 0.03 0.02 0.01 0.02 0.02 0.03 0.03 0.04 0.04 0.03 0.04 0.04 0.04 0.04 0.07 0.09 0.10 0.08 0.07 0.08 0.08 0.07 0.06 0.08 0.10 0.12 0.16 0.21 0.23 0.18 0.16 0.14 0.10 0.09 0.09 0.08 0.06 0.07 0.06 0.06
0.00 0.01 0.02 0.03 0.01 0.01 0.02 0.02 0.03 0.03 0.04 0.03 0.03 0.04 0.04 0.04 0.03 0.03 0.06 0.06 0.07 0.06 0.05 0.05 0.07 0.06 0.07 0.10 0.13 0.18 0.21 0.23 0.16 0.11 0.12 0.12 0.09 0.08 0.07 0.06 0.05 0.06 0.05
0.00 0.00 0.01 0.02 0.01 0.01 0.01 0.02 0.02 0.03 0.03 0.03 0.04 0.04 0.04 0.04 0.04 0.04 0.04 0.06 0.07 0.06 0.06 0.07 0.07 0.07 0.07 0.09 0.12 0.15 0.18 0.19 0.14 0.11 0.09 0.08 0.07 0.06 0.05 0.04 0.04 0.05 0.05
MSLP
1006.95 1006.59 1006.45 1006.54 1006.80 1007.10 1007.32 1007.37 1007.19 1006.78 1006.20 1005.56 1004.96 1004.49 1004.20 1004.11 1004.19 1004.40 1004.70 1005.03 1005.39 1005.76 1006.15 1006.56 1007.00 1007.45 1007.90 1008.33 1008.74 1009.12 1009.48 1009.83 1010.18 1010.56 1010.97 1011.40 1011.85 1012.28 1012.70 1013.09 1013.45 1013.79 1014.12
1007.05 1006.78 1006.72 1006.85 1007.11 1007.37 1007.54 1007.51 1007.26 1006.79 1006.17 1005.50 1004.89 1004.41 1004.12 1004.02 1004.09 1004.28 1004.56 1004.88 1005.22 1005.58 1005.97 1006.38 1006.82 1007.28 1007.75 1008.20 1008.62 1009.01 1009.38 1009.74 1010.11 1010.50 1010.92 1011.37 1011.83 1012.30 1012.77 1013.21 1013.63 1014.04 1014.41
1006.94 1006.78 1006.80 1006.98 1007.25 1007.50 1007.62 1007.55 1007.25 1006.77 1006.16 1005.52 1004.94 1004.50 1004.23 1004.13 1004.18 1004.34 1004.56 1004.83 1005.12 1005.44 1005.80 1006.19 1006.63 1007.10 1007.58 1008.05 1008.50 1008.93 1009.34 1009.74 1010.14 1010.55 1010.99 1011.45 1011.93 1012.42 1012.92 1013.40 1013.88 1014.33 1014.75
1006.62 1006.56 1006.67 1006.90 1007.19 1007.42 1007.52 1007.44 1007.15 1006.69 1006.13 1005.56 1005.07 1004.69 1004.47 1004.38 1004.42 1004.53 1004.69 1004.89 1005.11 1005.37 1005.68 1006.04 1006.46 1006.93 1007.42 1007.92 1008.42 1008.90 1009.37 1009.82 1010.27 1010.73 1011.20 1011.67 1012.16 1012.66 1013.16 1013.66 1014.16 1014.65 1015.12
1006.16 1006.19 1006.36 1006.65 1006.95 1007.18 1007.28 1007.19 1006.93 1006.54 1006.07 1005.61 1005.22 1004.94 1004.78 1004.72 1004.75 1004.83 1004.93 1005.06 1005.21 1005.40 1005.65 1005.96 1006.34 1006.79 1007.29 1007.81 1008.35 1008.90 1009.44 1009.97 1010.50 1011.01 1011.51 1012.00 1012.49 1012.97 1013.46 1013.96 1014.47 1014.97 1015.46
1005.70 1005.79 1006.01 1006.32 1006.63 1006.86 1006.95 1006.87 1006.65 1006.33 1005.97 1005.63 1005.36 1005.18 1005.10 1005.09 1005.12 1005.18 1005.24 1005.31 1005.40 1005.52 1005.70 1005.96 1006.29 1006.71 1007.19 1007.73 1008.31 1008.91 1009.53 1010.14 1010.75 1011.32 1011.86 1012.37 1012.85 1013.31 1013.77 1014.24 1014.73 1015.23 1015.73
1005.41 1005.52 1005.77 1006.08 1006.37 1006.57 1006.64 1006.57 1006.38 1006.12 1005.85 1005.61 1005.46 1005.38 1005.37 1005.42 1005.48 1005.53 1005.57 1005.61 1005.65 1005.72 1005.85 1006.04 1006.32 1006.68 1007.14 1007.66 1008.26 1008.91 1009.59 1010.29 1010.96 1011.61 1012.19 1012.71 1013.18 1013.61 1014.03 1014.45 1014.90 1015.38 1015.87
1005.43 1005.54 1005.77 1006.05 1006.29 1006.44 1006.46 1006.36 1006.17 1005.95 1005.74 1005.59 1005.51 1005.52 1005.58 1005.67 1005.76 1005.84 1005.88 1005.91 1005.93 1005.97 1006.06 1006.20 1006.42 1006.72 1007.13 1007.63 1008.22 1008.89 1009.61 1010.37 1011.11 1011.81 1012.43 1012.97 1013.42 1013.82 1014.19 1014.56 1014.97 1015.42 1015.89
1005.84 1005.93 1006.13 1006.34 1006.49 1006.55 1006.48 1006.32 1006.10 1005.87 1005.68 1005.57 1005.55 1005.60 1005.71 1005.84 1005.97 1006.07 1006.14 1006.18 1006.22 1006.25 1006.31 1006.42 1006.59 1006.84 1007.18 1007.64 1008.20 1008.87 1009.61 1010.39 1011.17 1011.91 1012.55 1013.10 1013.54 1013.91 1014.24 1014.57 1014.93 1015.35 1015.80
1006.62 1006.69 1006.82 1006.94 1006.98 1006.91 1006.74 1006.48 1006.19 1005.92 1005.71 1005.60 1005.59 1005.66 1005.79 1005.95 1006.10 1006.24 1006.34 1006.42 1006.48 1006.54 1006.60 1006.69 1006.83 1007.03 1007.33 1007.73 1008.26 1008.89 1009.62 1010.40 1011.19 1011.93 1012.58 1013.12 1013.56 1013.90 1014.20 1014.50 1014.84 1015.23 1015.67
1007.69 1007.73 1007.78 1007.79 1007.69 1007.49 1007.18 1006.80 1006.42 1006.08 1005.83 1005.70 1005.67 1005.73 1005.86 1006.02 1006.19 1006.35 1006.49 1006.62 1006.73 1006.82 1006.92 1007.03 1007.16 1007.34 1007.60 1007.96 1008.44 1009.03 1009.71 1010.46 1011.22 1011.93 1012.56 1013.09 1013.50 1013.83 1014.12 1014.41 1014.74 1015.12 1015.57
1008.90 1008.91 1008.88 1008.77 1008.54 1008.18 1007.74 1007.25 1006.77 1006.36 1006.05 1005.87 1005.80 1005.84 1005.95 1006.10 1006.27 1006.45 1006.63 1006.80 1006.97 1007.12 1007.27 1007.41 1007.57 1007.76 1008.01 1008.35 1008.78 1009.32 1009.94 1010.62 1011.31 1011.97 1012.55 1013.03 1013.42 1013.74 1014.03 1014.33 1014.68 1015.08 1015.54
1010.11 1010.08 1009.98 1009.75 1009.38 1008.90 1008.33 1007.73 1007.18 1006.70 1006.34 1006.12 1006.02 1006.02 1006.10 1006.23 1006.39 1006.58 1006.78 1006.99 1007.21 1007.42 1007.64 1007.85 1008.06 1008.30 1008.57 1008.89 1009.30 1009.78 1010.32 1010.91 1011.51 1012.07 1012.57 1012.99 1013.35 1013.66 1013.96 1014.28 1014.66 1015.11 1015.60
1011.18 1011.12 1010.94 1010.61 1010.13 1009.54 1008.88 1008.22 1007.61 1007.09 1006.70 1006.44 1006.31 1006.28 1006.32 1006.42 1006.56 1006.73 1006.94 1007.18 1007.45 1007.73 1008.01 1008.30 1008.60 1008.89 1009.21 1009.55 1009.94 1010.37 1010.84 1011.33 1011.80 1012.24 1012.63 1012.98 1013.28 1013.57 1013.89 1014.25 1014.68 1015.17 1015.71
1012.04 1011.94 1011.70 1011.29 1010.74 1010.08 1009.37 1008.67 1008.03 1007.50 1007.10 1006.83 1006.67 1006.60 1006.61 1006.67 1006.77 1006.93 1007.13 1007.38 1007.67 1008.00 1008.36 1008.73 1009.10 1009.48 1009.86 1010.25 1010.64 1011.03 1011.42 1011.79 1012.14 1012.45 1012.71 1012.96 1013.20 1013.47 1013.80 1014.19 1014.68 1015.23 1015.81
1012.67 1012.54 1012.25 1011.79 1011.19 1010.51 1009.79 1009.09 1008.47 1007.95 1007.55 1007.26 1007.08 1006.98 1006.94 1006.96 1007.02 1007.13 1007.31 1007.55 1007.85 1008.21 1008.62 1009.06 1009.52 1009.98 1010.43 1010.86 1011.26 1011.63 1011.96 1012.23 1012.45 1012.62 1012.77 1012.91 1013.09 1013.32 1013.65 1014.08 1014.61 1015.21 1015.84
1013.11 1012.95 1012.63 1012.15 1011.55 1010.88 1010.19 1009.52 1008.93 1008.43 1008.04 1007.74 1007.53 1007.39 1007.30 1007.26 1007.26 1007.33 1007.46 1007.67 1007.96 1008.33 1008.77 1009.26 1009.78 1010.31 1010.82 1011.30 1011.72 1012.08 1012.35 1012.54 1012.66 1012.72 1012.76 1012.81 1012.93 1013.13 1013.46 1013.91 1014.47 1015.10 1015.77
1013.41 1013.24 1012.91 1012.45 1011.89 1011.26 1010.62 1010.01 1009.45 1008.98 1008.58 1008.26 1008.01 1007.81 1007.65 1007.54 1007.48 1007.49 1007.57 1007.74 1008.00 1008.36 1008.80 1009.31 1009.86 1010.43 1010.99 1011.50 1011.95 1012.30 1012.55 1012.69 1012.74 1012.72 1012.69 1012.68 1012.74 1012.92 1013.24 1013.70 1014.28 1014.93 1015.61
1013.64 1013.47 1013.17 1012.75 1012.25 1011.70 1011.14 1010.58 1010.07 1009.60 1009.19 1008.82 1008.51 1008.23 1008.00 1007.81 1007.68 1007.62 1007.65 1007.76 1007.98 1008.30 1008.72 1009.21 1009.77 1010.35 1010.93 1011.46 1011.93 1012.29 1012.53 1012.66 1012.69 1012.64 1012.58 1012.54 1012.59 1012.77 1013.08 1013.54 1014.11 1014.76 1015.42
1013.85 1013.70 1013.45 1013.10 1012.68 1012.23 1011.74 1011.25 1010.77 1010.30 1009.85 1009.42 1009.03 1008.67 1008.35 1008.08 1007.88 1007.76 1007.72 1007.78 1007.95 1008.22 1008.58 1009.04 1009.56 1010.12 1010.68 1011.22 1011.70 1012.07 1012.34 1012.49 1012.54 1012.52 1012.48 1012.47 1012.54 1012.72 1013.04 1013.49 1014.04 1014.66 1015.29
1014.06 1013.95 1013.76 1013.50 1013.18 1012.82 1012.43 1012.00 1011.54 1011.06 1010.56 1010.06 1009.58 1009.13 1008.72 1008.38 1008.11 1007.93 1007.84 1007.85 1007.95 1008.16 1008.46 1008.84 1009.30 1009.81 1010.34 1010.86 1011.33 1011.73 1012.04 1012.25 1012.36 1012.42 1012.45 1012.51 1012.63 1012.85 1013.18 1013.62 1014.14 1014.71 1015.27
1014.28 1014.21 1014.09 1013.92 1013.71 1013.45 1013.13 1012.76 1012.32 1011.83 1011.29 1010.73 1010.16 1009.63 1009.14 1008.73 1008.41 1008.17 1008.04 1007.99 1008.04 1008.18 1008.40 1008.70 1009.07 1009.50 1009.97 1010.45 1010.92 1011.34 1011.70 1011.99 1012.21 1012.37 1012.52 1012.68 1012.88 1013.16 1013.51 1013.93 1014.41 1014.90 1015.39
1014.48 1014.46 1014.41 1014.32 1014.20 1014.03 1013.80 1013.48 1013.07 1012.57 1012.00 1011.38 1010.76 1010.16 1009.62 1009.16 1008.79 1008.52 1008.35 1008.25 1008.24 1008.30 1008.43 1008.63 1008.90 1009.24 1009.63 1010.06 1010.51 1010.95 1011.37 1011.75 1012.09 1012.39 1012.67 1012.95 1013.25 1013.59 1013.96 1014.36 1014.79 1015.20 1015.59
1014.67 1014.69 1014.68 1014.66 1014.62 1014.52 1014.35 1014.09 1013.71 1013.22 1012.64 1012.00 1011.35 1010.72 1010.15 1009.66 1009.26 1008.96 1008.75 1008.61 1008.54 1008.52 1008.55 1008.65 1008.81 1009.04 1009.35 1009.72 1010.14 1010.60 1011.07 1011.54 1011.99 1012.43 1012.84 1013.25 1013.64 1014.04 1014.43 1014.81 1015.17 1015.50 1015.79
1014.84 1014.87 1014.90 1014.92 1014.92 1014.88 1014.76 1014.54 1014.20 1013.74 1013.18 1012.55 1011.90 1011.27 1010.69 1010.20 1009.79 1009.47 1009.22 1009.04 1008.89 1008.79 1008.73 1008.71 1008.76 1008.89 1009.10 1009.41 1009.80 1010.26 1010.78 1011.32 1011.88 1012.43 1012.97 1013.47 1013.95 1014.39 1014.79 1015.14 1015.43 1015.68 1015.88
1014.98 1015.01 1015.05 1015.09 1015.11 1015.10 1015.02 1014.83 1014.53 1014.11 1013.59 1013.00 1012.39 1011.78 1011.23 1010.74 1010.33 1009.98 1009.70 1009.46 1009.25 1009.06 1008.90 1008.77 1008.72 1008.74 1008.87 1009.12 1009.47 1009.93 1010.48 1011.08 1011.71 1012.35 1012.98 1013.56 1014.09 1014.55 1014.94 1015.25 1015.49 1015.66 1015.78
Thickness
5812 5808 5802 5799 5795 5792 5790 5788 5786 5784 5783 5782 5781 5780 5780 5779 5778 5778 5777 5776 5775 5774 5773 5772 5772 5771 5770 5770 5770 5770 5769 5769 5769 5769 5769 5768 5767 5767 5766 5765 5764 5763 5761
5815 5807 5801 5798 5794 5791 5788 5786 5784 5783 5781 5780 5779 5779 5778 5777 5776 5776 5775 5774 5773 5772 5771 5771 5770 5769 5769 5768 5768 5768 5767 5767 5768 5768 5768 5767 5766 5765 5764 5763 5762 5760 5759
5816 5807 5801 5797 5793 5790 5787 5785 5783 5781 5780 5779 5778 5777 5776 5775 5775 5774 5773 5773 5772 5771 5770 5769 5768 5768 5767 5767 5767 5766 5766 5766 5766 5766 5767 5766 5765 5764 5762 5760 5759 5757 5756
5817 5808 5801 5796 5792 5789 5786 5784 5782 5780 5779 5778 5777 5776 5775 5774 5773 5772 5772 5771 5770 5769 5768 5768 5767 5766 5766 5765 5765 5765 5764 5764 5765 5765 5765 5765 5764 5762 5760 5758 5756 5755 5754
5818 5808 5799 5795 5791 5788 5785 5783 5781 5779 5778 5777 5775 5774 5773 5772 5771 5770 5770 5770 5769 5768 5767 5766 5765 5764 5764 5764 5763 5763 5763 5763 5763 5764 5764 5763 5762 5760 5759 5757 5754 5753 5752
5817 5808 5799 5795 5791 5787 5784 5782 5780 5778 5776 5775 5774 5772 5771 5770 5769 5768 5768 5769 5767 5766 5765 5764 5763 5763 5762 5762 5761 5761 5761 5761 5761 5762 5762 5762 5760 5758 5757 5755 5752 5751 5749
5817 5808 5799 5794 5790 5787 5784 5781 5779 5777 5775 5774 5772 5771 5770 5769 5767 5767 5766 5765 5764 5764 5763 5762 5761 5761 5760 5760 5760 5759 5759 5759 5759 5760 5760 5760 5758 5757 5755 5753 5750 5748 5747
5817 5808 5799 5793 5790 5786 5783 5781 5778 5776 5774 5772 5771 5770 5769 5767 5766 5765 5764 5763 5762 5762 5761 5761 5760 5759 5759 5759 5758 5758 5758 5757 5758 5758 5758 5757 5755 5754 5752 5750 5748 5747 5745
5818 5808 5800 5795 5790 5786 5783 5780 5778 5775 5773 5771 5770 5769 5768 5766 5765 5764 5763 5762 5761 5760 5760 5759 5759 5759 5758 5758 5757 5757 5757 5756 5755 5755 5755 5754 5752 5751 5749 5748 5746 5745 5743
5817 5810 5804 5798 5792 5787 5783 5780 5777 5775 5773 5771 5769 5768 5767 5766 5765 5764 5762 5761 5760 5759 5758 5758 5758 5758 5758 5757 5757 5756 5756 5754 5754 5753 5751 5750 5749 5748 5746 5746 5744 5743 5742
5814 5810 5806 5801 5795 5791 5786 5781 5778 5775 5772 5771 5769 5768 5767 5766 5766 5764 5763 5761 5759 5758 5758 5757 5757 5758 5757 5757 5756 5756 5755 5754 5753 5752 5750 5748 5746 5745 5744 5744 5743 5742 5740
5808 5808 5806 5802 5797 5793 5789 5782 5779 5776 5773 5771 5769 5768 5767 5767 5766 5765 5763 5761 5760 5759 5758 5757 5757 5757 5756 5757 5757 5756 5755 5753 5752 5750 5749 5747 5745 5744 5743 5742 5741 5740 5739
5809 5806 5805 5802 5797 5793 5788 5784 5780 5778 5774 5772 5770 5768 5768 5767 5766 5765 5762 5761 5760 5759 5758 5758 5756 5756 5757 5757 5757 5757 5755 5754 5752 5750 5748 5746 5745 5744 5742 5741 5740 5739 5737
5808 5805 5803 5801 5796 5792 5787 5784 5781 5778 5775 5772 5770 5768 5767 5766 5766 5764 5763 5761 5760 5760 5759 5758 5757 5756 5756 5757 5757 5756 5755 5753 5751 5748 5745 5745 5744 5743 5742 5741 5740 5738 5736
5807 5803 5801 5799 5793 5789 5786 5783 5781 5778 5775 5772 5770 5768 5767 5765 5764 5763 5761 5761 5760 5760 5759 5757 5756 5755 5755 5755 5755 5754 5753 5752 5750 5748 5745 5744 5743 5742 5741 5740 5738 5737 5736
5806 5802 5800 5796 5792 5787 5784 5781 5779 5777 5775 5772 5770 5768 5766 5764 5763 5762 5761 5760 5759 5758 5757 5756 5755 5754 5753 5752 5752 5751 5751 5750 5748 5746 5744 5743 5742 5740 5739 5739 5737 5736 5735
5806 5802 5798 5795 5791 5786 5783 5780 5779 5776 5774 5772 5769 5767 5765 5764 5762 5761 5760 5759 5758 5757 5756 5755 5754 5752 5751 5749 5749 5749 5749 5748 5747 5746 5744 5742 5741 5739 5738 5737 5737 5735 5734
5806 5800 5797 5795 5789 5784 5781 5779 5777 5776 5773 5771 5768 5766 5764 5763 5762 5760 5758 5758 5757 5757 5755 5753 5751 5749 5747 5746 5746 5747 5747 5746 5746 5745 5744 5742 5740 5738 5737 5736 5735 5734 5733
5804 5799 5794 5792 5787 5783 5780 5777 5776 5773 5772 5770 5767 5765 5763 5762 5761 5758 5757 5757 5757 5756 5754 5753 5750 5747 5745 5744 5744 5745 5745 5745 5745 5744 5743 5741 5740 5738 5737 5734 5733 5732 5731
5802 5797 5792 5788 5784 5781 5778 5774 5772 5770 5769 5768 5766 5763 5762 5760 5759 5758 5757 5756 5755 5753 5752 5751 5748 5747 5745 5744 5744 5743 5743 5744 5744 5743 5742 5741 5739 5738 5737 5734 5732 5731 5729
5798 5793 5788 5784 5781 5778 5774 5770 5766 5764 5764 5764 5763 5762 5760 5759 5758 5757 5756 5754 5753 5751 5749 5749 5747 5744 5743 5743 5740 5737 5739 5742 5741 5741 5740 5739 5738 5737 5735 5733 5731 5730 5728
5794 5790 5786 5782 5779 5775 5772 5769 5766 5764 5763 5762 5761 5760 5759 5758 5757 5756 5754 5753 5751 5749 5748 5746 5744 5741 5741 5742 5736 5731 5727 5729 5734 5738 5737 5736 5736 5735 5733 5732 5730 5728 5727
5793 5789 5786 5781 5777 5774 5771 5768 5765 5762 5761 5759 5757 5757 5757 5756 5755 5754 5753 5752 5750 5749 5746 5744 5742 5740 5737 5739 5738 5732 5725 5721 5725 5730 5733 5734 5733 5732 5730 5730 5728 5727 5726
5793 5790 5785 5780 5776 5772 5769 5766 5761 5757 5754 5755 5755 5755 5755 5754 5753 5752 5751 5750 5749 5748 5746 5744 5742 5741 5738 5734 5736 5736 5734 5730 5723 5720 5725 5729 5730 5729 5728 5728 5726 5725 5725
5795 5790 5784 5778 5774 5771 5768 5765 5760 5758 5757 5756 5755 5753 5753 5752 5751 5751 5750 5748 5746 5745 5744 5743 5741 5740 5738 5735 5733 5732 5731 5730 5729 5721 5717 5721 5724 5726 5726 5725 5724 5724 5723
5794 5789 5783 5776 5771 5769 5766 5763 5760 5757 5755 5753 5751 5750 5749 5749 5749 5749 5748 5746 5744 5744 5743 5741 5740 5738 5736 5735 5733 5731 5728 5725 5724 5723 5718 5718 5718 5720 5723 5724 5723 5722 5721